DEWPR LOLH-EDNX

Flight info

Callsign DEWPR
Flight time N/A
Altitude 5000
Route BUWOQ IFR DCT BIBAG/STAY01 DCT NAPSA DCT OTT VFR
Aircraft C172/L-SFG/C

Departure

Time 2026-05-05 18:54
Airport Hofkirchen Airfield (LOLH)

Arrival

Time N/A
Airport Schleissheim Airfield (EDNX)
Time Latitude Longitude Altitude Speed Heading
2026-05-05 18:43 48.13965 14.33320 1171 ft 0 kts 78°
2026-05-05 18:47 48.13965 14.33321 1171 ft 0 kts 83°
2026-05-05 18:48 48.13958 14.33335 1171 ft 0 kts 160°
2026-05-05 18:48 48.13944 14.33324 1171 ft 5 kts 229°
2026-05-05 18:48 48.13923 14.33276 1171 ft 0 kts 180°
2026-05-05 18:51 48.13913 14.33285 1171 ft 4 kts 132°
2026-05-05 18:52 48.13892 14.33361 1171 ft 16 kts 82°
2026-05-05 18:52 48.13911 14.33548 1171 ft 14 kts 79°
2026-05-05 18:52 48.13928 14.33678 1171 ft 13 kts 79°
2026-05-05 18:52 48.13942 14.33829 1171 ft 14 kts 89°
2026-05-05 18:53 48.13948 14.33864 1171 ft 9 kts 248°
2026-05-05 18:53 48.13907 14.33542 1171 ft 50 kts 261°
2026-05-05 18:53 48.13845 14.32921 1220 ft 65 kts 261°
2026-05-05 18:53 48.13782 14.32204 1331 ft 71 kts 259°
2026-05-05 18:54 48.13685 14.31465 1486 ft 71 kts 258°
2026-05-05 18:54 48.13595 14.30721 1635 ft 72 kts 260°
2026-05-05 18:54 48.13510 14.29977 1780 ft 73 kts 249°
2026-05-05 18:54 48.13136 14.29477 1917 ft 74 kts 194°
2026-05-05 18:55 48.12612 14.29505 2009 ft 82 kts 175°
2026-05-05 18:55 48.11998 14.29599 2011 ft 91 kts 173°
2026-05-05 18:55 48.11344 14.29728 2019 ft 96 kts 171°
2026-05-05 18:55 48.10804 14.30293 2013 ft 100 kts 114°
2026-05-05 18:56 48.10828 14.31331 1991 ft 103 kts 78°
2026-05-05 18:56 48.10973 14.32394 1995 ft 104 kts 78°
2026-05-05 18:56 48.11126 14.33482 1984 ft 106 kts 78°
2026-05-05 18:56 48.11256 14.34562 1993 ft 105 kts 80°
2026-05-05 18:57 48.11379 14.35646 1992 ft 105 kts 79°
2026-05-05 18:57 48.11537 14.36733 1995 ft 105 kts 64°
2026-05-05 18:57 48.12167 14.37051 1969 ft 106 kts 348°
2026-05-05 18:57 48.12866 14.36831 1999 ft 91 kts 347°
2026-05-05 18:58 48.13438 14.36642 1948 ft 79 kts 348°
2026-05-05 18:58 48.13963 14.36424 1888 ft 80 kts 333°
2026-05-05 18:58 48.14173 14.35794 1746 ft 68 kts 264°
2026-05-05 18:58 48.14088 14.35138 1552 ft 62 kts 258°
2026-05-05 18:59 48.14012 14.34474 1357 ft 65 kts 260°
2026-05-05 18:59 48.13938 14.33823 1171 ft 55 kts 260°
2026-05-05 18:59 48.13876 14.33249 1182 ft 66 kts 260°
2026-05-05 18:59 48.13789 14.32497 1272 ft 76 kts 260°
2026-05-05 19:00 48.13710 14.31706 1424 ft 77 kts 262°
2026-05-05 19:00 48.13627 14.30894 1577 ft 77 kts 260°
2026-05-05 19:00 48.13544 14.30095 1726 ft 78 kts 264°
2026-05-05 19:00 48.13358 14.29370 1872 ft 77 kts 207°
2026-05-05 19:01 48.12814 14.29416 1993 ft 80 kts 170°
2026-05-05 19:01 48.12212 14.29590 2010 ft 95 kts 169°
2026-05-05 19:01 48.11558 14.29802 2017 ft 98 kts 166°
2026-05-05 19:01 48.10913 14.30158 2021 ft 100 kts 138°
2026-05-05 19:02 48.10717 14.31112 2037 ft 99 kts 82°
2026-05-05 19:02 48.10820 14.32164 2047 ft 100 kts 80°
2026-05-05 19:02 48.10951 14.33205 2043 ft 102 kts 78°
2026-05-05 19:02 48.11113 14.34283 2024 ft 105 kts 77°
2026-05-05 19:03 48.11276 14.35357 2007 ft 106 kts 77°
2026-05-05 19:03 48.11485 14.36423 1993 ft 106 kts 56°
2026-05-05 19:03 48.12123 14.36941 1977 ft 106 kts
2026-05-05 19:03 48.12848 14.36771 1982 ft 105 kts 349°
2026-05-05 19:04 48.13562 14.36529 1977 ft 105 kts 346°
2026-05-05 19:04 48.14191 14.36192 1963 ft 84 kts 311°
2026-05-05 19:04 48.14160 14.35435 1805 ft 68 kts 250°
2026-05-05 19:04 48.14038 14.34746 1507 ft 68 kts 258°
2026-05-05 19:05 48.13965 14.34061 1214 ft 68 kts 259°
2026-05-05 19:05 48.13897 14.33463 1171 ft 60 kts 262°
2026-05-05 19:05 48.13813 14.32730 1244 ft 75 kts 258°
2026-05-05 19:05 48.13701 14.31950 1395 ft 76 kts 256°
2026-05-05 19:06 48.13576 14.31166 1541 ft 77 kts 256°
2026-05-05 19:06 48.13457 14.30373 1692 ft 78 kts 256°
2026-05-05 19:06 48.13330 14.29559 1826 ft 80 kts 256°
2026-05-05 19:06 48.13198 14.28722 1955 ft 83 kts 256°
2026-05-05 19:07 48.13078 14.27854 2083 ft 87 kts 266°
2026-05-05 19:07 48.13093 14.27250 2168 ft 88 kts 274°
2026-05-05 19:07 48.13170 14.26037 2334 ft 91 kts 275°
2026-05-05 19:07 48.13267 14.25085 2460 ft 92 kts 290°
2026-05-05 19:08 48.13556 14.24211 2589 ft 93 kts 298°
2026-05-05 19:08 48.13760 14.23645 2672 ft 93 kts 298°
2026-05-05 19:08 48.14171 14.22488 2840 ft 94 kts 297°
2026-05-05 19:08 48.14471 14.21618 2966 ft 94 kts 297°
2026-05-05 19:09 48.14771 14.20741 3092 ft 94 kts 296°
2026-05-05 19:09 48.15067 14.19867 3217 ft 93 kts 296°
2026-05-05 19:09 48.15361 14.18996 3342 ft 93 kts 296°
2026-05-05 19:09 48.15656 14.18121 3468 ft 93 kts 296°
2026-05-05 19:10 48.15947 14.17257 3593 ft 92 kts 296°
2026-05-05 19:10 48.16242 14.16380 3720 ft 92 kts 296°
2026-05-05 19:10 48.16495 14.15625 3830 ft 91 kts 296°
2026-05-05 19:10 48.16785 14.14763 3956 ft 91 kts 296°
2026-05-05 19:11 48.17070 14.13910 4082 ft 90 kts 296°
2026-05-05 19:11 48.17328 14.13143 4195 ft 90 kts 296°
2026-05-05 19:11 48.17609 14.12304 4320 ft 89 kts 296°
2026-05-05 19:11 48.17886 14.11478 4444 ft 88 kts 296°
2026-05-05 19:12 48.18162 14.10653 4569 ft 87 kts 296°
2026-05-05 19:12 48.18437 14.09832 4694 ft 87 kts 296°
2026-05-05 19:12 48.18708 14.09022 4818 ft 85 kts 296°
2026-05-05 19:12 48.18971 14.08234 4941 ft 83 kts 296°
2026-05-05 19:13 48.19237 14.07439 5014 ft 89 kts 296°
2026-05-05 19:13 48.19539 14.06538 5004 ft 100 kts 297°
2026-05-05 19:13 48.19858 14.05594 4998 ft 102 kts 297°
2026-05-05 19:13 48.20186 14.04647 4997 ft 103 kts 296°
2026-05-05 19:14 48.20507 14.03656 4997 ft 103 kts 296°
2026-05-05 19:14 48.20820 14.02689 4996 ft 103 kts 296°
2026-05-05 19:14 48.21141 14.01704 4996 ft 103 kts 296°
2026-05-05 19:14 48.21455 14.00726 4996 ft 104 kts 296°
2026-05-05 19:15 48.21776 13.99739 4996 ft 104 kts 296°
2026-05-05 19:15 48.22022 13.98720 4996 ft 104 kts 285°
2026-05-05 19:15 48.22201 13.97669 4996 ft 104 kts 283°
2026-05-05 19:15 48.22369 13.96602 4996 ft 104 kts 283°
2026-05-05 19:16 48.22531 13.95535 4996 ft 104 kts 283°
2026-05-05 19:16 48.22692 13.94459 4996 ft 104 kts 283°
2026-05-05 19:16 48.22850 13.93395 4996 ft 104 kts 282°
2026-05-05 19:16 48.23009 13.92322 4996 ft 104 kts 282°
2026-05-05 19:17 48.23167 13.91247 4996 ft 104 kts 282°
2026-05-05 19:17 48.23323 13.90196 4996 ft 104 kts 282°
2026-05-05 19:17 48.23481 13.89122 4996 ft 104 kts 282°
2026-05-05 19:17 48.23638 13.88053 4996 ft 104 kts 282°
2026-05-05 19:18 48.23794 13.86988 4996 ft 104 kts 282°
2026-05-05 19:18 48.23952 13.85916 4996 ft 104 kts 282°
2026-05-05 19:18 48.24110 13.84842 4996 ft 104 kts 283°
2026-05-05 19:18 48.24276 13.83764 4996 ft 104 kts 283°
2026-05-05 19:19 48.24439 13.82705 4996 ft 104 kts 283°
2026-05-05 19:19 48.24598 13.81642 4996 ft 104 kts 283°
2026-05-05 19:19 48.24757 13.80575 4996 ft 104 kts 282°
2026-05-05 19:19 48.24915 13.79495 4996 ft 104 kts 282°
2026-05-05 19:20 48.25073 13.78420 5021 ft 104 kts 282°
2026-05-05 19:20 48.25224 13.77380 5143 ft 99 kts 282°
2026-05-05 19:20 48.25368 13.76383 5264 ft 96 kts 282°
2026-05-05 19:20 48.25509 13.75415 5387 ft 93 kts 282°
2026-05-05 19:21 48.25645 13.74474 5509 ft 90 kts 282°
2026-05-05 19:21 48.25777 13.73556 5632 ft 88 kts 282°
2026-05-05 19:21 48.25908 13.72652 5756 ft 85 kts 282°
2026-05-05 19:21 48.26033 13.71789 5861 ft 84 kts 282°
2026-05-05 19:22 48.26157 13.70931 5960 ft 84 kts 282°
2026-05-05 19:22 48.26284 13.70052 6008 ft 90 kts 282°
2026-05-05 19:22 48.26430 13.69055 6003 ft 100 kts 282°
2026-05-05 19:22 48.26584 13.68012 5998 ft 102 kts 283°
2026-05-05 19:23 48.26685 13.67323 5997 ft 102 kts 283°
2026-05-05 19:23 48.26890 13.65922 5997 ft 102 kts 282°
2026-05-05 19:23 48.27047 13.64846 5996 ft 103 kts 282°
2026-05-05 19:23 48.27198 13.63801 5996 ft 103 kts 282°
2026-05-05 19:24 48.27351 13.62746 5996 ft 103 kts 282°
2026-05-05 19:24 48.27505 13.61681 5996 ft 103 kts 282°
2026-05-05 19:24 48.27659 13.60618 5996 ft 103 kts 282°
2026-05-05 19:24 48.27812 13.59554 5996 ft 103 kts 282°
2026-05-05 19:25 48.27964 13.58500 5996 ft 103 kts 282°
2026-05-05 19:25 48.28117 13.57445 5996 ft 103 kts 282°
2026-05-05 19:25 48.28272 13.56369 5996 ft 103 kts 282°
2026-05-05 19:25 48.28426 13.55298 5996 ft 103 kts 282°
2026-05-05 19:26 48.28577 13.54245 5996 ft 103 kts 282°
2026-05-05 19:26 48.28731 13.53178 5996 ft 103 kts 282°